Terminal Aerodrome Forecast
Issued by NWS Jackson, MS

Home | Current Version | Previous Version | Text Only | Print | Product List | Glossary On
Versions: 1 2 3 4 5 6 7 8 9 10 11 12 13 14 15 16 17 18
000
FTUS44 KJAN 011100
TAFGLH
TAF
KGLH 011120Z 0112/0212 36003KT 5SM -RA BR SCT020 OVC040
     FM011400 02007KT P6SM -RA OVC040
     FM020000 02004KT P6SM OVC100
     FM020600 00000KT 4SM BR SCT020 OVC040=

USA.gov is the U.S. government's official web portal to all federal, state and local government web resources and services.